Miscellaneous Local Product
Issued by NWS Hastings, NE

Home | Current Version | Previous Version | Graphics & Text | Print | Product List | Glossary On
Versions: 1 2 3 4 5 6 7 8 9 10 11 12 13 14 15 16 17 18 19 20 21 22 23 24 25 26 27 28 29 30 31 32 33 34 35 36 37 38 39 40 41 42 43 44 45 46 47 48 49 50
000
AXUS43 KGID 060602
MISGRI

GID CWA HOURLY WEATHER ROUNDUP
NATIONAL WEATHER SERVICE HASTINGS NE
1200 AM CST FRI MAR 06 2015

NOTE: "FAIR" INDICATES FEW OR NO CLOUDS BELOW 12,000 FEET WITH NO
SIGNIFICANT WEATHER AND/OR OBSTRUCTIONS TO VISIBILITY.

...SOUTH CENTRAL NEBRASKA...

CITY           SKY/WX    TMP DP  RH WIND       PRES   REMARKS
GRAND ISLAND   CLEAR     31   7  36 SW15      30.21F WCI  20
HASTINGS       CLEAR     31   5  33 S12       30.20F WCI  22
KEARNEY        CLEAR     28  10  47 SW10      30.21S WCI  19
ORD            CLEAR     16   6  65 CALM      30.18F
YORK           PTCLDY    27  10  50 S10       30.22F WCI  17
AURORA         CLEAR     26   8  46 S9        30.21F WCI  17
LEXINGTON      CLEAR     23  13  65 NW8       30.22S WCI  14
HOLDREGE       CLEAR     32  12  43 SW9       30.22S WCI  24
HEBRON         CLEAR     32  13  45 S15G22    30.26F WCI  22

...NEBRASKA PANHANDLE...

CITY           SKY/WX    TMP DP  RH WIND       PRES   REMARKS
CHADRON        PTCLDY    29  20  69 SW12      30.19F WCI  19
ALLIANCE       CLEAR     17  13  84 W6        30.20F WCI   9
SCOTTSBLUFF    PTCLDY    27  20  75 CALM      30.23S
SIDNEY         CLEAR     28  19  69 W10       30.24F WCI  19

...WESTERN AND NORTH CENTRAL NEBRASKA...

CITY           SKY/WX    TMP DP  RH WIND       PRES   REMARKS
VALENTINE      CLEAR     23  18  81 W7        30.16S WCI  15
AINSWORTH      CLEAR     27  18  67 W6        30.16S WCI  21
ONEILL         CLEAR     27  12  54 SW9       30.15F WCI  17
BROKEN BOW     CLEAR     27  10  49 NW3       30.19S
IMPERIAL         N/A     29  14  53 W12       30.25S WCI  19
NORTH PLATTE   CLEAR     19  11  70 NW8       30.22F WCI   9
MCCOOK         CLEAR     27  16  63 W8        30.25S WCI  19

...EASTERN NEBRASKA...

CITY           SKY/WX    TMP DP  RH WIND       PRES   REMARKS
NORFOLK        PTCLDY    28   8  43 S20       30.18F WCI  15
SO SIOUX CITY  MOCLDY    23   9  55 MISG      30.25F
TEKAMAH        CLOUDY    27  10  49 S13       30.28F WCI  16
COLUMBUS       PTCLDY    28   7  40 S12       30.24F WCI  18
ALBION         CLEAR     25   6  45 S5        30.20F WCI  19
OMAHA EPPLEY   MOCLDY    26   8  46 S15       30.32F WCI  14
OFFUTT AFB     MOCLDY    25   9  51 SE10      30.31F WCI  15
MILLARD        MOCLDY    27  10  47 S9        30.32F WCI  18
LINCOLN        CLOUDY    27  13  55 S12       30.28F WCI  17
NEBRASKA CITY  PTCLDY    23   6  48 S15       30.33F WCI  10
BEATRICE       CLEAR     27  15  61 S13G18    30.30F WCI  16
FALLS CITY     CLEAR     23  11  60 S10       30.37F WCI  12

...NORTHERN KANSAS...

CITY           SKY/WX    TMP DP  RH WIND       PRES   REMARKS
GOODLAND       CLEAR     27  21  78 W12       30.28F WCI  17
HILL CITY      CLEAR     29  12  49 W9        30.28F WCI  20
NORTON         CLEAR     25  12  58 SW10      30.25F WCI  15
PHILLIPSBURG   CLEAR     34  16  47 SW13      30.27F WCI  25
SMITH CENTER   CLEAR     25   7  46 SW9       30.28S WCI  15
BELOIT         CLEAR     28  12  50 S8        30.30S WCI  20
HAYS           CLEAR     27   9  46 SW8       30.30F WCI  18
RUSSELL        FAIR      28  15  58 S10       30.29F WCI  19
CONCORDIA      CLEAR     32  16  51 S20G29    30.29F WCI  20
SALINA         CLEAR     31  19  61 S9        30.35F WCI  23
TOPEKA         CLEAR     26  14  60 S8        30.42F WCI  18



USA.gov is the U.S. government's official web portal to all federal, state and local government web resources and services.